Regional Weather Roundup
Issued by NWS

Home | Current Version | Previous Version | Graphics & Text | Print | Product List | Glossary On
Versions: 1 2 3 4 5 6 7 8 9 10 11 12 13 14 15 16 17 18 19 20 21 22 23 24 25 26 27 28 29 30 31 32 33 34 35 36 37 38 39 40 41 42 43 44 45 46 47 48 49 50
000
ASUS43 KLSX 261910
RWRMO

WEATHER SUMMARY FOR MISSOURI
NATIONAL WEATHER SERVICE SPRINGFIELD MO
200 PM CDT MON SEP 26 2016

NOTE: "FAIR" INDICATES FEW OR NO CLOUDS BELOW 12,000 FEET WITH NO
       SIGNIFICANT WEATHER AND/OR OBSTRUCTIONS TO VISIBILITY.
       CURRENT SKY AND/OR WEATHER CONDITIONS ARE NOT AVAILABLE FOR
       CHILLICOTHE AND FARMINGTON.

MOZ001>031-035>038-043-044-053-054-262000-
...NORTHERN AND WESTERN MISSOURI...

CITY           SKY/WX    TMP DP  RH WIND       PRES   REMARKS
KANSAS CTY INT SUNNY     71  39  31 N7        30.22F
KANSAS C DTWN  SUNNY     74  38  27 NW7       30.21F
LEE`S SUMMIT   SUNNY     71  35  26 NW7G18    30.22F
ST JOSEPH      SUNNY     74  40  29 NW16      30.21F
CHILLICOTHE      N/A     73  39  29 NW9G16    30.19F
KIRKSVILLE     SUNNY     71  39  31 NW15G24   30.16F

$$
MOZ066>068-077>081-088>096-101>105-262000-
...SOUTHWEST MISSOURI...

CITY           SKY/WX    TMP DP  RH WIND       PRES   REMARKS
SPRINGFIELD    SUNNY     72  38  29 N14       30.21F
JOPLIN         SUNNY     71  42  35 N7G17     30.24F
BRANSON        PTSUNNY   72  39  30 N13       30.22F

$$
MOZ032>034-039>042-045>050-055>058-069>072-262000-
...CENTRAL MISSOURI...

CITY           SKY/WX    TMP DP  RH WIND       PRES   REMARKS
COLUMBIA       SUNNY     72  33  24 NW13      30.18F
JEFFERSON CITY SUNNY     73  38  27 NW8       30.17F
ROLLA          SUNNY     70  41  34 NW7       30.18F
SEDALIA        SUNNY     75  36  24 NW10      30.20F
WHITEMAN AFB   MOSUNNY   72  36  27 NW10      30.19F
OSAGE BEACH    SUNNY     71  41  33 NW8       30.21F

$$
MOZ051-052-059>065-262000-
...EAST CENTRAL MISSOURI...

CITY           SKY/WX    TMP DP  RH WIND       PRES   REMARKS
ST LOUIS INTL  MOSUNNY   74  39  28 W12G22    30.14F
SPIRIT OF STL  SUNNY     73  41  31 NW10G20   30.13F
ST CHARLES     SUNNY     72  39  30 NW9G22    30.12F

$$
MOZ072>076-082>087-097>100-106>115-262000-
...SOUTH CENTRAL AND SOUTHEAST MISSOURI...

CITY           SKY/WX    TMP DP  RH WIND       PRES   REMARKS
CAPE GIRARDEAU CLOUDY    72  54  53 NE8       30.12F
FARMINGTON     SUNNY     70  48  45 N7        30.16F
WEST PLAINS    SUNNY     73  45  36 NW8       30.20F

$$



USA.gov is the U.S. government's official web portal to all federal, state and local government web resources and services.